Campo, CA

3:29 PM PDT on September 24, 2017 (GMT -0700)
Campo

Weather History for KCZZ - December, 2011

Change the Weather History Date:

Monday, December 5, 2011

  Actual Average Record
Temperature  
Mean Temperature 36 °F 48 °F  
Max Temperature 50 °F 64 °F 86 °F (1989)
Min Temperature 21 °F 33 °F 21 °F (1953)
Degree Days  
Heating Degree Days 29 17  
Month to date heating degree days 119 82  
Since 1 July heating degree days 751 652  
Cooling Degree Days 0 0  
Month to date cooling degree days 0 0  
Year to date cooling degree days 733 841  
Moisture  
Dew Point 12 °F    
Average Humidity 49    
Maximum Humidity 77    
Minimum Humidity 21    
Precipitation  
Precipitation 0.00 in 0.06 in 1.09 in (1951)
Month to date precipitation 0.31 0.30  
Year to date precipitation 11.81 13.76  
Since 1 July precipitation 4.06  
Snow  
Snow 0.00 in - - ()
Month to date snowfall 0.0  
Year to date snowfall 0.0  
Snow Depth 0.00 in    
Sea Level Pressure  
Sea Level Pressure 30.13 in    
Wind  
Wind Speed 14 mph (NE)    
Max Wind Speed 37 mph    
Max Gust Speed 43 mph    
T = Trace of Precipitation, MM = Missing Value Source: NWS Daily Summary

Daily Weather History Graph

Daily Weather History Graph

Search for Another Location

Airport or City:

Trip Planner

Search our weather history database for the weather conditions in past years. The results will help you decide how hot, cold, wet, or windy it might be!

Date:

Astronomy

Dec. 05, 2011 Rise Set
Actual Time 6:33 AM PST 4:39 PM PST
Civil Twilight 6:06 AM PST 5:06 PM PST
Nautical Twilight 5:35 AM PST 5:37 PM PST
Astronomical Twilight 5:05 AM PST 6:07 PM PST
Moon 1:30 PM PST (12/5) 2:09 AM PST (12/5)
Length of Visible Light 11h 00m
Length of Day
10h 06m
Waxing Gibbous, 80% of the Moon is Illuminated
Dec 5
Waxing Gibbous
Dec 10
Full
Dec 17
Last Quarter
Dec 24
New
Dec 31
First Quarter

Hourly Weather History & Observations

Time (PST) Temp. Windchill Dew Point Humidity Pressure Visibility Wind Dir Wind Speed Gust Speed Precip Events Conditions
12:52 AM 26.1 °F - 18.0 °F 71% 30.06 in - Calm Calm - N/A   Unknown
1:52 AM 25.0 °F 19.3 °F 17.1 °F 72% 30.07 in - NNE 4.6 mph - N/A   Unknown
2:52 AM 25.0 °F 17.1 °F 17.1 °F 72% 30.09 in - NE 6.9 mph - N/A   Unknown
3:52 AM 24.1 °F - 16.0 °F 71% 30.09 in - Calm Calm - N/A   Unknown
4:52 AM 21.9 °F 17.2 °F 16.0 °F 78% 30.10 in - ENE 3.5 mph - N/A   Unknown
5:52 AM 37.9 °F 30.5 °F 16.0 °F 41% 30.09 in - ENE 11.5 mph 16.1 mph N/A   Unknown
6:52 AM 42.1 °F 32.6 °F 14.0 °F 32% 30.10 in - NE 23.0 mph 28.8 mph N/A   Unknown
7:52 AM 44.1 °F 35.4 °F 12.9 °F 28% 30.13 in - ENE 21.9 mph 31.1 mph N/A   Unknown
8:52 AM 46.9 °F - 12.0 °F 24% 30.15 in - NE 20.7 mph 26.5 mph N/A   Unknown
9:52 AM 46.9 °F - 12.9 °F 25% 30.17 in - NE 21.9 mph 36.8 mph N/A   Unknown
10:52 AM 48.0 °F - 12.9 °F 24% 30.15 in - NE 21.9 mph 35.7 mph N/A   Unknown
11:52 AM 48.9 °F - 10.9 °F 22% 30.15 in - ENE 16.1 mph 29.9 mph N/A   Unknown
12:52 PM 48.9 °F - 10.0 °F 21% 30.12 in - NE 24.2 mph 33.4 mph N/A   Unknown
1:52 PM 48.0 °F - 10.0 °F 22% 30.12 in - NE 23.0 mph 39.1 mph N/A   Unknown
2:52 PM 46.9 °F - 8.1 °F 21% 30.12 in - NE 26.5 mph 38.0 mph N/A   Unknown
3:52 PM 46.0 °F 38.0 °F 9.0 °F 22% 30.14 in - NE 21.9 mph 32.2 mph N/A   Unknown
4:52 PM 43.0 °F 36.0 °F 10.0 °F 26% 30.16 in - NE 13.8 mph - N/A   Unknown
5:52 PM 43.0 °F 36.8 °F 10.0 °F 26% 30.14 in - NE 11.5 mph 20.7 mph N/A   Unknown
6:52 PM 43.0 °F 35.4 °F 10.0 °F 26% 30.14 in - NE 16.1 mph 25.3 mph N/A   Unknown
7:52 PM 44.1 °F 36.8 °F 9.0 °F 24% 30.15 in - NE 16.1 mph 31.1 mph N/A   Unknown
8:52 PM 43.0 °F 35.1 °F 6.1 °F 22% 30.16 in - NNE 17.3 mph - N/A   Unknown
9:52 PM 42.1 °F 33.6 °F 10.9 °F 28% 30.17 in - NE 18.4 mph 29.9 mph N/A   Unknown
10:52 PM 41.0 °F 35.2 °F 9.0 °F 27% 30.19 in - NNE 9.2 mph 32.2 mph N/A   Unknown
11:52 PM 41.0 °F 31.1 °F 8.1 °F 26% 30.17 in - NE 23.0 mph 32.2 mph N/A   Unknown